Location: Newark
(43.4306°N, 0.3089°E)
Time: 00:31:22
(UTC+00:00)

Vanguard 1 Rocket - Pass Details

Date: 03 September 2019
Orbit: 652 x 4225 km, 34.3° (Epoch: 15 September)

Event Time Altitude Azimuth Distance (km) Brightness Sun altitude
Exits shadow 03:15:01 13° 162° (SSE) 2,043 9.0 -22.3°
Drops below altitude 10° 03:15:55 10° 153° (SSE) 2,300 9.4 -22.1°
Sets 03:19:31 0° 134° (SE) 3,569 10.6 -21.6°
